ANA745 RJOO-RJCH

Flight info

Callsign ANA745
Flight time N/A
Altitude 35000
Route MINAC GUJYO Y13 AKITA Y131 HINAI Y113 TAXIR
Aircraft A321/M-SDE3FGHIRWY/LB1

Departure

Time N/A
Airport Osaka Itami International Airport (RJOO)

Arrival

Time 2026-04-19 18:27
Airport Hakodate Airport (RJCH)
Time Latitude Longitude Altitude Speed Heading
2026-04-19 13:24 34.87557 136.01654 14979 ft 329 kts 71°
2026-04-19 13:24 34.88358 136.04259 15516 ft 332 kts 71°
2026-04-19 13:24 34.89167 136.06903 16039 ft 335 kts 71°
2026-04-19 13:24 34.89981 136.09564 16545 ft 338 kts 71°
2026-04-19 13:25 34.90806 136.12267 17040 ft 341 kts 71°
2026-04-19 13:25 34.91664 136.14944 17539 ft 345 kts 66°
2026-04-19 13:25 34.92934 136.17438 18016 ft 349 kts 52°
2026-04-19 13:25 34.94653 136.19533 18426 ft 355 kts 40°
2026-04-19 13:26 34.96635 136.21393 18806 ft 361 kts 38°
2026-04-19 13:26 34.98642 136.23201 19189 ft 365 kts 37°
2026-04-19 13:26 35.00717 136.25066 19594 ft 370 kts 37°
2026-04-19 13:26 35.02789 136.26935 19984 ft 374 kts 36°
2026-04-19 13:27 35.04889 136.28841 20360 ft 378 kts 36°
2026-04-19 13:27 35.06984 136.30747 20743 ft 382 kts 36°
2026-04-19 13:27 35.09135 136.32709 21125 ft 386 kts 36°
2026-04-19 13:27 35.11285 136.34671 21496 ft 390 kts 36°
2026-04-19 13:28 35.13478 136.36665 21834 ft 395 kts 35°
2026-04-19 13:28 35.15677 136.38669 22183 ft 399 kts 35°
2026-04-19 13:28 35.17904 136.40704 22507 ft 403 kts 35°
2026-04-19 13:28 35.20164 136.42775 22874 ft 406 kts 35°
2026-04-19 13:29 35.22370 136.44800 23240 ft 410 kts 35°
2026-04-19 13:29 35.22764 136.45161 23302 ft 410 kts 35°
2026-04-19 13:37 35.22836 136.45229 23314 ft 410 kts 35°
2026-04-19 13:38 35.25156 136.47363 23680 ft 414 kts 34°
2026-04-19 13:38 35.27457 136.49480 24057 ft 417 kts 35°
2026-04-19 13:38 35.29778 136.51619 24387 ft 421 kts 34°
2026-04-19 13:38 35.32116 136.53777 24712 ft 425 kts 34°
2026-04-19 13:39 35.34469 136.55948 25081 ft 428 kts 34°
2026-04-19 13:39 35.36862 136.58156 25432 ft 431 kts 34°
2026-04-19 13:39 35.39277 136.60384 25754 ft 434 kts 33°
2026-04-19 13:39 35.41670 136.62590 26044 ft 439 kts 34°
2026-04-19 13:40 35.44132 136.64868 26345 ft 442 kts 34°
2026-04-19 13:40 35.46591 136.67152 26664 ft 445 kts 34°
2026-04-19 13:40 35.49046 136.69441 26964 ft 448 kts 34°
2026-04-19 13:40 35.51540 136.71770 27259 ft 451 kts 34°
2026-04-19 13:41 35.54042 136.74104 27560 ft 454 kts 34°
2026-04-19 13:41 35.56568 136.76454 27833 ft 457 kts 34°
2026-04-19 13:41 35.59080 136.78793 28123 ft 459 kts 33°
2026-04-19 13:41 35.61642 136.81178 28455 ft 461 kts 33°
2026-04-19 13:42 35.64204 136.83562 28722 ft 464 kts 34°
2026-04-19 13:42 35.66789 136.85973 28944 ft 468 kts 33°
2026-04-19 13:42 35.69356 136.88368 29171 ft 471 kts 33°
2026-04-19 13:42 35.71969 136.90810 29450 ft 473 kts 33°
2026-04-19 13:43 35.74590 136.93257 29704 ft 476 kts 33°
2026-04-19 13:43 35.77255 136.95752 29940 ft 478 kts 33°
2026-04-19 13:43 35.79881 136.98213 30169 ft 481 kts 33°
2026-04-19 13:43 35.82534 137.00703 30416 ft 483 kts 32°
2026-04-19 13:44 35.85218 137.03220 30675 ft 484 kts 32°
2026-04-19 13:44 35.87891 137.05728 30872 ft 487 kts 32°
2026-04-19 13:44 35.90599 137.08270 31106 ft 489 kts 32°
2026-04-19 13:44 35.93296 137.10803 31283 ft 493 kts 32°
2026-04-19 13:45 35.96028 137.13376 31530 ft 493 kts 32°
2026-04-19 13:45 35.98761 137.15955 31843 ft 493 kts 32°
2026-04-19 13:45 36.01467 137.18506 32122 ft 494 kts 31°
2026-04-19 13:45 36.04194 137.21081 32419 ft 493 kts 31°
2026-04-19 13:46 36.06926 137.23660 32652 ft 494 kts 31°
2026-04-19 13:46 36.09656 137.26236 32872 ft 496 kts 31°
2026-04-19 13:46 36.12395 137.28824 33098 ft 497 kts 30°
2026-04-19 13:46 36.15160 137.31429 33341 ft 497 kts 31°
2026-04-19 13:47 36.17891 137.34009 33510 ft 499 kts 30°
2026-04-19 13:47 36.20659 137.36633 33727 ft 500 kts 30°
2026-04-19 13:47 36.23412 137.39247 33887 ft 502 kts 30°
2026-04-19 13:47 36.26170 137.41866 34042 ft 503 kts 30°
2026-04-19 13:48 36.28960 137.44514 34143 ft 506 kts 30°
2026-04-19 13:48 36.31756 137.47180 34357 ft 505 kts 30°
2026-04-19 13:48 36.34543 137.49834 34478 ft 508 kts 30°
2026-04-19 13:49 36.40120 137.55160 34735 ft 510 kts 30°
2026-04-19 13:49 36.42938 137.57855 34869 ft 511 kts 28°
2026-04-19 13:49 36.45770 137.60565 34976 ft 513 kts 30°
2026-04-19 13:50 36.51442 137.65996 35052 ft 519 kts 30°
2026-04-19 13:50 36.57201 137.71251 35065 ft 511 kts 25°
2026-04-19 13:51 36.63215 137.75970 35089 ft 507 kts 23°
2026-04-19 13:51 36.69199 137.80568 35109 ft 508 kts 23°
2026-04-19 13:52 36.75184 137.85210 35110 ft 507 kts 22°
2026-04-19 13:52 36.81139 137.89847 35101 ft 506 kts 22°
2026-04-19 13:53 36.87120 137.94519 35074 ft 505 kts 23°
2026-04-19 13:53 36.93024 137.99141 35040 ft 504 kts 23°
2026-04-19 13:54 36.98338 138.03307 35014 ft 504 kts 23°
2026-04-19 17:32 36.99055 138.03868 35014 ft 504 kts 23°
2026-04-19 17:33 37.04986 138.08525 34994 ft 504 kts 23°
2026-04-19 17:33 37.10916 138.13196 35005 ft 502 kts 23°
2026-04-19 17:34 37.16799 138.17822 34995 ft 499 kts 23°
2026-04-19 17:34 37.22659 138.22437 34988 ft 499 kts 23°
2026-04-19 17:35 37.28512 138.27065 34977 ft 500 kts 23°
2026-04-19 17:35 37.34374 138.31715 34977 ft 496 kts 24°
2026-04-19 17:36 37.40203 138.36346 34978 ft 497 kts 23°
2026-04-19 17:36 37.46030 138.40981 34996 ft 497 kts 23°
2026-04-19 17:37 37.51867 138.45636 34992 ft 497 kts 23°
2026-04-19 17:37 37.57659 138.50267 35019 ft 493 kts 23°
2026-04-19 17:38 37.63434 138.54886 35013 ft 492 kts 23°
2026-04-19 17:38 37.69191 138.59503 34995 ft 492 kts 23°
2026-04-19 17:39 37.74960 138.64137 35014 ft 493 kts 23°
2026-04-19 17:39 37.80769 138.68839 35017 ft 492 kts 24°
2026-04-19 17:40 37.86487 138.73479 35022 ft 491 kts 24°
2026-04-19 17:40 37.92224 138.78120 35052 ft 489 kts 23°
2026-04-19 17:41 37.97951 138.82750 35046 ft 489 kts 24°
2026-04-19 17:41 38.03675 138.87390 35038 ft 488 kts 23°
2026-04-19 17:42 38.09351 138.92000 35039 ft 488 kts 24°
2026-04-19 17:42 38.15079 138.96652 35041 ft 485 kts 24°
2026-04-19 17:43 38.20744 139.01260 35033 ft 484 kts 24°
2026-04-19 17:43 38.26395 139.05872 35034 ft 483 kts 24°
2026-04-19 17:44 38.32024 139.10477 35034 ft 482 kts 24°
2026-04-19 17:44 38.37641 139.15082 35040 ft 482 kts 24°
2026-04-19 17:45 38.43283 139.19714 35030 ft 481 kts 24°
2026-04-19 17:45 38.48854 139.24304 35030 ft 480 kts 24°
2026-04-19 17:46 38.54491 139.28946 35025 ft 482 kts 24°
2026-04-19 17:46 38.60108 139.33589 35028 ft 479 kts 24°
2026-04-19 17:47 38.65662 139.38182 35025 ft 479 kts 24°
2026-04-19 17:47 38.71279 139.42837 35034 ft 481 kts 25°
2026-04-19 17:48 38.76865 139.47482 35035 ft 479 kts 24°
2026-04-19 17:48 38.82439 139.52121 35042 ft 479 kts 25°
2026-04-19 17:49 38.87992 139.56753 35033 ft 477 kts 25°
2026-04-19 17:49 38.93539 139.61386 35035 ft 477 kts 25°
2026-04-19 17:50 38.99121 139.66061 35033 ft 476 kts 25°
2026-04-19 17:50 39.04829 139.70219 35035 ft 470 kts 18°
2026-04-19 17:51 39.10768 139.73561 35036 ft 467 kts 14°
2026-04-19 17:51 39.16765 139.76746 35035 ft 464 kts 14°
2026-04-19 17:52 39.22698 139.79919 35025 ft 465 kts 14°
2026-04-19 17:52 39.28673 139.83136 35032 ft 464 kts 14°
2026-04-19 17:53 39.34594 139.86337 35038 ft 464 kts 14°
2026-04-19 17:53 39.40566 139.89577 35037 ft 464 kts 14°
2026-04-19 17:54 39.46495 139.92796 35041 ft 462 kts 14°
2026-04-19 17:54 39.52424 139.96021 35045 ft 464 kts 14°
2026-04-19 17:55 39.58380 139.99271 35042 ft 462 kts 14°
2026-04-19 17:55 39.64309 140.02507 35051 ft 462 kts 14°
2026-04-19 17:56 39.70101 140.06093 35048 ft 467 kts 21°
2026-04-19 17:56 39.75642 140.10637 35045 ft 477 kts 28°
2026-04-19 17:57 39.80931 140.15819 35053 ft 477 kts 30°
2026-04-19 17:57 39.86206 140.21068 34878 ft 476 kts 30°
2026-04-19 17:58 39.88810 140.23653 34649 ft 470 kts 30°
2026-04-19 17:58 39.91378 140.26198 34264 ft 466 kts 30°
2026-04-19 17:58 39.93967 140.28763 33832 ft 461 kts 30°
2026-04-19 17:58 39.96493 140.31265 33391 ft 457 kts 30°
2026-04-19 17:59 39.99002 140.33749 32844 ft 456 kts 31°
2026-04-19 17:59 40.01529 140.36253 32235 ft 456 kts 31°
2026-04-19 17:59 40.04041 140.38750 31662 ft 454 kts 31°
2026-04-19 17:59 40.06530 140.41229 31093 ft 452 kts 31°
2026-04-19 18:00 40.09018 140.43704 30581 ft 448 kts 31°
2026-04-19 18:00 40.11493 140.46173 30136 ft 442 kts 31°
2026-04-19 18:00 40.13893 140.48560 29627 ft 438 kts 31°
2026-04-19 18:00 40.16323 140.50977 29076 ft 434 kts 31°
2026-04-19 18:01 40.18696 140.53343 28535 ft 430 kts 31°
2026-04-19 18:01 40.21054 140.55704 28018 ft 426 kts 31°
2026-04-19 18:01 40.23390 140.58038 27481 ft 422 kts 30°
2026-04-19 18:01 40.25779 140.60158 26959 ft 414 kts 24°
2026-04-19 18:02 40.28300 140.61920 26441 ft 405 kts 18°
2026-04-19 18:02 40.30869 140.63281 25930 ft 397 kts 12°
2026-04-19 18:02 40.33514 140.64278 25446 ft 388 kts
2026-04-19 18:02 40.36118 140.64897 24948 ft 381 kts
2026-04-19 18:03 40.38730 140.65315 24424 ft 377 kts
2026-04-19 18:03 40.41330 140.65703 23891 ft 374 kts
2026-04-19 18:03 40.43905 140.66081 23398 ft 371 kts
2026-04-19 18:03 40.46449 140.66458 22898 ft 369 kts
2026-04-19 18:04 40.48990 140.66834 22393 ft 366 kts
2026-04-19 18:04 40.51505 140.67210 21904 ft 364 kts
2026-04-19 18:04 40.54022 140.67592 21385 ft 362 kts
2026-04-19 18:04 40.56514 140.67966 20894 ft 360 kts
2026-04-19 18:05 40.58980 140.68335 20424 ft 357 kts
2026-04-19 18:05 40.61436 140.68703 19945 ft 355 kts
2026-04-19 18:05 40.63870 140.69067 19473 ft 352 kts
2026-04-19 18:05 40.66278 140.69428 18987 ft 350 kts
2026-04-19 18:06 40.68710 140.69794 18518 ft 347 kts
2026-04-19 18:06 40.71073 140.70148 18050 ft 345 kts
2026-04-19 18:06 40.73472 140.70511 17607 ft 342 kts
2026-04-19 18:06 40.75812 140.70831 17187 ft 338 kts
2026-04-19 18:07 40.80465 140.71385 16321 ft 333 kts 360°
2026-04-19 18:07 40.82742 140.71654 15942 ft 331 kts 360°
2026-04-19 18:07 40.85025 140.71927 15543 ft 328 kts 360°
2026-04-19 18:08 40.87287 140.72200 15100 ft 326 kts 359°
2026-04-19 18:08 40.89549 140.72473 14722 ft 323 kts 359°
2026-04-19 18:08 40.91758 140.72739 14362 ft 320 kts 359°
2026-04-19 18:08 40.93985 140.73006 13931 ft 318 kts 359°
2026-04-19 18:09 40.96173 140.73271 13516 ft 315 kts 359°
2026-04-19 18:09 40.98352 140.73535 13083 ft 313 kts 359°
2026-04-19 18:09 41.00496 140.73796 12699 ft 310 kts 359°
2026-04-19 18:09 41.02654 140.74059 12277 ft 307 kts 359°
2026-04-19 18:10 41.04767 140.74315 11863 ft 305 kts 359°
2026-04-19 18:10 41.06857 140.74568 11441 ft 302 kts 359°
2026-04-19 18:10 41.08940 140.74823 11020 ft 299 kts 359°
2026-04-19 18:10 41.11012 140.75076 10617 ft 296 kts 359°
2026-04-19 18:11 41.13029 140.75325 10388 ft 286 kts 359°
2026-04-19 18:11 41.14967 140.75568 10187 ft 276 kts 359°
2026-04-19 18:11 41.16858 140.75803 9988 ft 267 kts 359°
2026-04-19 18:11 41.18701 140.76028 9676 ft 264 kts 359°
2026-04-19 18:12 41.20512 140.76244 9301 ft 262 kts 359°
2026-04-19 18:12 41.22317 140.76462 8927 ft 261 kts 359°
2026-04-19 18:12 41.24128 140.76682 8556 ft 259 kts 359°
2026-04-19 18:12 41.25923 140.76898 8175 ft 258 kts 360°
2026-04-19 18:13 41.27702 140.77115 7802 ft 257 kts
2026-04-19 18:13 41.29464 140.77330 7441 ft 256 kts
2026-04-19 18:13 41.31241 140.77547 7061 ft 255 kts
2026-04-19 18:13 41.32988 140.77760 6702 ft 253 kts
2026-04-19 18:14 41.34748 140.77977 6330 ft 252 kts
2026-04-19 18:14 41.36485 140.78191 6003 ft 250 kts
2026-04-19 18:14 41.38230 140.78406 5948 ft 252 kts
2026-04-19 18:14 41.39991 140.78622 5941 ft 253 kts
2026-04-19 18:15 41.41723 140.78836 5938 ft 253 kts
2026-04-19 18:15 41.43464 140.78790 5935 ft 248 kts 347°
2026-04-19 18:15 41.45110 140.78149 5939 ft 246 kts 334°
2026-04-19 18:15 41.46592 140.77011 5943 ft 244 kts 325°
2026-04-19 18:16 41.47992 140.75746 5936 ft 244 kts 324°
2026-04-19 18:16 41.49405 140.74449 5939 ft 244 kts 324°
2026-04-19 18:16 41.50792 140.73173 5931 ft 244 kts 324°
2026-04-19 18:16 41.52184 140.71893 5928 ft 244 kts 324°
2026-04-19 18:17 41.53595 140.70596 5925 ft 244 kts 324°
2026-04-19 18:17 41.54988 140.69316 5927 ft 245 kts 324°
2026-04-19 18:17 41.56395 140.68024 5932 ft 245 kts 324°
2026-04-19 18:17 41.57805 140.66728 5934 ft 244 kts 324°
2026-04-19 18:18 41.59200 140.65443 5934 ft 244 kts 324°
2026-04-19 18:18 41.60593 140.64162 5886 ft 245 kts 324°
2026-04-19 18:18 41.62003 140.62865 5751 ft 244 kts 324°
2026-04-19 18:18 41.63404 140.61574 5614 ft 244 kts 324°
2026-04-19 18:19 41.64792 140.60294 5495 ft 244 kts 324°
2026-04-19 18:19 41.66193 140.59001 5352 ft 244 kts 324°
2026-04-19 18:19 41.67590 140.57712 5218 ft 244 kts 324°
2026-04-19 18:19 41.68985 140.56424 5102 ft 243 kts 324°
2026-04-19 18:20 41.70375 140.55139 4969 ft 243 kts 324°
2026-04-19 18:20 41.71768 140.53853 4649 ft 241 kts 324°
2026-04-19 18:20 41.73137 140.52586 4236 ft 242 kts 324°
2026-04-19 18:20 41.74513 140.51314 3961 ft 237 kts 324°
2026-04-19 18:21 41.75833 140.50095 3932 ft 224 kts 324°
2026-04-19 18:21 41.77099 140.48991 3909 ft 210 kts 334°
2026-04-19 18:21 41.78527 140.48761 3892 ft 210 kts
2026-04-19 18:21 41.79933 140.49338 3926 ft 214 kts 14°
2026-04-19 18:22 41.81347 140.49974 3928 ft 214 kts 14°
2026-04-19 18:22 41.82763 140.50601 3925 ft 213 kts 14°
2026-04-19 18:22 41.84136 140.51386 3897 ft 219 kts 33°
2026-04-19 18:22 41.85045 140.53011 3899 ft 228 kts 68°
2026-04-19 18:23 41.85134 140.55162 3895 ft 235 kts 104°
2026-04-19 18:23 41.84423 140.57127 3726 ft 238 kts 124°
2026-04-19 18:23 41.83446 140.58917 3412 ft 238 kts 129°
2026-04-19 18:23 41.82485 140.60704 3073 ft 235 kts 121°
2026-04-19 18:24 41.81775 140.62605 2771 ft 226 kts 111°
2026-04-19 18:24 41.81275 140.64565 2481 ft 218 kts 106°
2026-04-19 18:24 41.80846 140.66487 2221 ft 209 kts 106°
2026-04-19 18:24 41.80426 140.68297 2005 ft 201 kts 107°
2026-04-19 18:25 41.80003 140.70024 1753 ft 189 kts 107°
2026-04-19 18:25 41.79602 140.71639 1478 ft 177 kts 107°
2026-04-19 18:25 41.79229 140.73161 1223 ft 168 kts 108°
2026-04-19 18:25 41.78867 140.74637 1000 ft 166 kts 108°
2026-04-19 18:26 41.78508 140.76099 794 ft 165 kts 108°
2026-04-19 18:26 41.78154 140.77542 585 ft 164 kts 109°
2026-04-19 18:26 41.77799 140.79001 365 ft 163 kts 108°
2026-04-19 18:26 41.77449 140.80437 152 ft 162 kts 109°
2026-04-19 18:27 41.77116 140.81796 113 ft 141 kts 108°
2026-04-19 18:27 41.76863 140.82826 128 ft 91 kts 109°
2026-04-19 18:27 41.76744 140.83339 147 ft 21 kts 90°
2026-04-19 18:27 41.76772 140.83363 148 ft 0 kts 326°
2026-04-19 18:28 41.76774 140.83362 149 ft 0 kts 335°
2026-04-19 18:28 41.76786 140.83360 149 ft 6 kts
2026-04-19 18:28 41.76859 140.83385 152 ft 10 kts
2026-04-19 18:28 41.76913 140.83344 153 ft 9 kts 294°
2026-04-19 18:29 41.76939 140.83244 151 ft 12 kts 289°
2026-04-19 18:29 41.76971 140.83116 146 ft 16 kts 289°
2026-04-19 18:29 41.77012 140.82944 137 ft 21 kts 289°
2026-04-19 18:29 41.77070 140.82735 126 ft 25 kts 293°
2026-04-19 18:30 41.77116 140.82509 117 ft 25 kts 288°
2026-04-19 18:30 41.77173 140.82285 115 ft 25 kts 287°
2026-04-19 18:30 41.77224 140.82066 115 ft 23 kts 289°
2026-04-19 18:30 41.77274 140.81874 119 ft 15 kts 289°
2026-04-19 18:31 41.77288 140.81830 119 ft 3 kts 314°
2026-04-19 18:31 41.77307 140.81825 120 ft 2 kts 15°
2026-04-19 18:31 41.77321 140.81833 120 ft 2 kts 20°
2026-04-19 18:31 41.77343 140.81842 121 ft 5 kts 18°
2026-04-19 18:32 41.77383 140.81860 121 ft 6 kts 18°
2026-04-19 18:32 41.77403 140.81868 122 ft 0 kts 18°